Wind_Speed
14 13 12 12 12 12 12 13 12 11 10 8 7 7 5 3 3 4 5 6 7 8 8 9 8 8 8 8 8 9 9 8 8 7 8 9 9 9 10 10 10 10 10
13 13 12 12 12 12 12 13 13 12 11 9 8 8 7 5 4 4 5 7 8 8 9 9 9 10 9 9 10 10 10 10 9 9 10 10 10 10 11 11 11 11 11
12 12 12 12 11 12 12 12 12 12 11 10 9 8 7 7 5 4 4 6 8 8 9 9 10 10 10 10 11 11 11 12 11 11 11 11 12 12 11 11 12 12 12
11 12 12 12 11 12 12 12 12 12 11 9 10 9 8 8 6 4 4 5 6 7 8 9 10 11 11 11 12 12 13 13 13 13 12 12 12 13 13 13 13 13 13
11 11 12 12 12 11 12 12 12 12 11 10 10 10 9 9 7 5 5 4 5 6 7 9 10 11 11 12 12 13 14 14 14 14 14 14 14 14 14 14 15 15 14
10 11 11 12 12 11 11 12 13 13 11 10 10 9 10 9 8 7 6 6 6 7 8 9 10 11 12 12 13 14 15 15 16 16 16 16 16 16 16 16 16 16 16
9 10 11 11 11 10 11 12 12 13 12 10 10 9 9 9 9 9 8 7 7 7 7 9 10 11 13 13 14 15 16 16 17 17 17 17 17 17 17 17 17 17 18
9 10 10 10 10 11 11 11 11 12 12 11 10 10 9 10 10 10 9 8 7 7 7 8 9 11 12 12 13 14 15 16 17 18 18 18 18 19 19 19 19 19 20
10 9 10 10 10 11 11 11 11 11 12 12 11 11 9 10 10 10 10 9 9 9 9 9 10 11 11 12 14 14 15 17 17 18 19 19 20 20 20 20 20 20 21
10 10 10 11 10 10 11 11 11 12 12 12 11 11 10 10 10 10 10 10 11 10 10 10 10 11 12 12 13 14 15 16 17 17 18 19 20 20 21 21 21 22 22
11 11 11 11 11 10 10 11 11 12 12 12 12 12 11 10 10 11 11 11 11 11 11 11 12 12 13 13 14 14 14 15 16 17 18 19 19 20 21 21 22 22 22
12 12 11 11 11 11 11 11 11 12 12 12 12 12 12 12 12 12 12 12 12 12 12 12 13 14 14 15 15 15 16 17 17 18 18 19 20 21 21 22 23 23 24
13 13 12 11 12 12 12 12 12 12 12 12 13 13 13 13 14 14 14 14 13 13 14 14 14 14 15 15 16 16 17 17 18 19 19 20 21 22 22 22 23 24 25
15 14 13 13 13 13 13 13 13 13 13 13 14 14 14 15 15 15 16 15 15 15 15 16 15 16 16 17 17 18 17 18 19 20 21 21 21 22 23 23 23 24 25
16 16 15 15 15 15 15 14 14 14 15 15 15 16 16 16 16 17 17 17 17 17 17 17 17 17 17 18 18 18 19 19 20 21 22 22 22 23 23 24 25 25 26
18 18 17 17 17 16 16 15 15 16 16 17 18 18 18 18 18 19 19 19 19 19 18 18 19 18 19 19 18 19 20 21 21 22 23 23 24 24 24 25 26 27 27
20 20 20 19 18 19 18 18 18 18 18 19 19 19 20 20 20 20 20 20 20 20 20 20 20 20 20 20 20 20 21 21 22 24 24 24 24 24 25 26 27 27 27
22 22 22 21 21 21 21 20 20 20 20 21 21 22 22 22 22 22 23 23 22 22 22 21 21 22 22 21 21 21 21 22 22 23 23 24 24 25 26 26 26 27 27
24 24 24 24 24 24 24 23 23 23 23 23 24 24 25 25 25 25 25 25 25 25 24 24 23 23 23 23 23 23 23 23 23 23 24 24 25 25 26 26 26 26 27
26 26 26 26 27 27 27 26 26 26 26 26 27 27 28 27 27 28 27 27 27 27 27 26 26 25 24 25 26 25 25 24 24 24 24 25 25 26 26 27 27 28 28
28 28 28 28 29 30 30 30 29 30 30 30 30 30 29 29 30 30 30 30 30 30 30 29 28 27 26 26 27 27 26 26 25 26 27 27 28 28 28 28 29 29 30
30 30 30 30 31 32 33 33 33 33 33 33 34 34 33 33 33 34 33 33 32 31 31 30 29 29 28 28 27 28 28 28 28 28 29 29 30 30 30 30 31 31 32
32 32 32 32 33 34 35 35 34 36 36 36 37 37 37 37 37 36 35 34 33 33 32 31 30 30 30 29 30 29 29 30 30 30 30 31 31 31 32 32 32 33 33
34 34 34 35 36 36 37 37 38 39 39 40 40 39 38 39 39 37 35 34 34 34 33 33 32 31 31 31 31 32 32 32 32 32 32 32 33 33 34 34 34 34 34
36 36 36 37 37 38 39 40 40 41 41 41 41 41 41 40 40 39 37 36 35 35 35 34 33 32 32 33 33 34 33 33 34 34 34 34 35 35 35 35 35 35 35
38 39 39 39 39 40 41 41 41 42 42 42 42 42 41 41 40 39 39 38 37 36 35 34 33 33 32 33 34 34 34 35 35 36 36 36 36 35 35 36 36 35 35
Wind_Direction
25 27 28 27 26 26 24 22 20 18 17 17 18 14 7 341 292 257 246 244 236 232 233 235 235 236 236 237 240 240 240 246 251 253 255 258 260 258 257 258 261 266 270
21 21 23 21 20 24 24 23 21 18 17 16 14 8 6 0 330 283 256 250 245 242 241 241 242 243 243 243 244 243 245 250 254 258 260 261 262 262 261 263 263 266 271
15 16 16 14 17 21 20 20 18 16 16 15 13 10 7 360 347 316 279 258 250 248 246 244 246 245 246 247 249 247 248 251 257 262 263 261 260 262 264 266 267 269 271
9 9 9 10 11 14 14 14 13 11 11 9 4 7 4 357 349 330 305 279 266 259 253 250 250 248 250 253 253 251 250 252 256 261 263 262 261 262 264 268 270 272 272
3 2 4 4 7 9 7 6 6 7 9 5 1 1 360 355 353 336 317 303 283 275 271 261 257 255 256 257 256 254 254 255 257 259 261 263 262 263 264 266 269 272 273
359 358 358 358 359 2 2 2 2 1 5 2 357 354 354 354 352 344 324 307 299 283 278 271 268 267 266 264 261 259 259 258 258 259 261 262 263 266 267 268 269 272 275
352 352 353 356 358 359 358 357 359 358 359 356 352 350 350 351 346 344 334 320 311 296 285 280 274 270 271 271 269 267 265 265 263 262 263 263 265 267 270 270 270 271 274
343 345 347 350 352 352 353 352 351 352 353 351 347 347 346 347 346 343 338 332 321 309 301 289 283 279 277 274 272 269 269 268 266 264 265 265 266 268 271 270 271 273 275
330 333 336 342 345 346 347 347 346 349 351 351 349 346 344 342 343 342 338 333 325 314 309 297 287 283 279 279 276 274 273 270 270 267 265 265 266 267 270 271 272 274 276
319 323 325 329 335 340 343 343 343 347 349 349 349 348 345 343 340 338 334 331 328 320 309 301 297 292 289 286 283 281 276 271 270 269 268 267 269 270 271 272 273 275 275
305 313 317 322 326 332 335 337 339 341 344 345 345 346 346 342 339 336 332 327 323 320 316 305 300 297 293 287 283 285 284 280 276 274 274 271 272 274 274 273 273 274 276
295 303 309 312 318 322 327 329 333 335 338 338 339 340 341 341 337 333 331 328 326 321 316 312 305 299 295 291 285 283 283 283 280 277 278 277 277 277 277 276 275 275 276
283 291 297 302 308 313 317 321 326 329 331 332 333 335 336 334 332 329 329 327 324 320 316 311 306 303 301 295 287 283 283 282 280 278 278 279 278 276 277 278 278 278 277
275 283 287 292 299 304 307 311 316 321 324 326 328 330 330 329 328 326 325 325 324 321 319 314 309 303 300 297 290 284 283 284 281 279 279 280 280 277 277 278 279 280 280
271 276 281 285 290 296 299 303 307 312 316 318 321 322 323 323 323 324 324 324 324 321 317 314 311 305 301 300 295 288 285 284 283 282 281 281 280 279 279 279 279 281 281
266 271 276 281 285 290 295 298 301 305 307 309 313 317 317 318 319 319 320 319 319 318 314 311 310 307 303 300 298 294 290 287 287 286 284 282 280 280 280 281 280 280 280
263 269 272 276 281 285 290 292 297 299 300 303 307 309 313 314 315 315 314 314 315 314 312 309 307 305 304 302 299 296 294 293 289 288 286 283 281 281 282 283 283 283 282
261 264 267 269 274 279 283 287 292 296 297 298 301 304 307 309 309 309 307 307 308 309 309 306 305 304 302 301 298 297 295 295 294 292 289 285 283 283 284 285 286 285 284
261 262 264 266 271 275 279 283 287 289 292 295 297 299 301 305 306 306 303 302 303 304 304 303 301 300 299 299 297 293 293 293 293 293 290 288 286 285 285 286 287 287 287
259 260 263 264 267 271 276 279 282 285 288 291 294 297 299 301 303 305 304 304 301 300 299 299 298 298 297 295 294 293 292 292 292 292 292 290 288 288 287 287 288 288 288
259 260 261 262 264 268 272 275 278 281 283 287 291 293 295 297 299 301 301 302 301 299 297 295 294 294 295 296 293 291 292 292 291 291 292 292 292 289 287 288 288 288 288
260 260 260 261 263 266 269 270 274 278 282 285 288 290 293 294 297 297 298 298 299 299 297 293 292 292 292 293 294 293 292 292 292 291 291 291 291 290 289 288 288 288 289
259 258 258 260 263 266 269 272 276 279 282 284 285 287 290 293 296 295 296 295 296 296 296 292 291 290 290 289 290 291 291 292 292 292 292 291 290 290 290 290 290 289 289
260 260 261 261 263 266 268 272 276 279 281 283 285 286 287 291 293 293 293 293 293 294 294 291 290 290 290 289 288 288 288 290 291 291 291 292 292 291 290 289 289 289 289
262 263 263 266 267 268 269 272 275 278 279 281 283 285 287 290 292 292 292 291 292 293 296 295 292 292 291 290 289 288 287 289 290 291 291 292 292 291 289 289 289 289 289
263 264 265 267 268 269 269 271 274 276 277 279 281 284 286 289 289 289 291 292 292 293 293 293 291 290 290 291 291 291 290 291 291 291 292 292 292 291 290 289 289 289 288
Height
5929 5927 5925 5923 5921 5918 5916 5914 5912 5910 5908 5906 5905 5904 5903 5902 5902 5901 5901 5901 5902 5903 5903 5904 5905 5905 5906 5907 5907 5908 5908 5909 5909 5909 5910 5910 5910 5909 5910 5910 5910 5910 5909
5931 5928 5926 5924 5922 5920 5917 5915 5913 5911 5909 5907 5905 5903 5902 5901 5901 5900 5900 5900 5900 5901 5901 5902 5903 5903 5904 5905 5906 5906 5907 5907 5907 5908 5908 5908 5908 5907 5907 5907 5907 5907 5907
5932 5929 5927 5925 5922 5920 5918 5916 5914 5911 5909 5907 5905 5904 5902 5901 5899 5899 5898 5898 5898 5899 5899 5900 5901 5901 5902 5903 5903 5904 5904 5905 5905 5905 5906 5905 5906 5905 5905 5905 5905 5905 5904
5932 5930 5928 5926 5923 5921 5919 5916 5914 5912 5910 5908 5906 5903 5902 5900 5899 5897 5897 5897 5897 5897 5897 5898 5898 5899 5900 5900 5901 5901 5902 5902 5903 5903 5903 5903 5903 5903 5903 5903 5902 5902 5902
5933 5931 5928 5926 5924 5922 5919 5917 5914 5912 5910 5908 5906 5904 5902 5900 5898 5897 5896 5896 5896 5895 5895 5896 5896 5896 5897 5898 5898 5898 5899 5899 5899 5900 5900 5900 5899 5899 5899 5899 5899 5899 5898
5933 5931 5929 5926 5924 5922 5920 5917 5914 5912 5909 5908 5906 5904 5902 5900 5898 5897 5895 5895 5894 5894 5894 5894 5894 5894 5894 5895 5895 5895 5895 5896 5896 5896 5896 5896 5896 5896 5896 5896 5895 5895 5894
5933 5931 5929 5926 5924 5922 5920 5917 5915 5912 5910 5908 5906 5904 5902 5900 5898 5896 5895 5894 5893 5893 5892 5892 5891 5891 5891 5891 5892 5892 5892 5892 5892 5892 5892 5892 5892 5892 5892 5892 5891 5891 5890
5932 5930 5928 5926 5924 5922 5919 5917 5915 5912 5910 5908 5905 5902 5901 5899 5898 5896 5894 5893 5892 5891 5890 5890 5889 5888 5888 5888 5888 5888 5888 5888 5888 5888 5888 5888 5888 5888 5888 5888 5887 5886 5886
5931 5929 5928 5926 5923 5921 5919 5917 5914 5912 5910 5907 5905 5902 5900 5899 5897 5895 5894 5892 5891 5889 5888 5887 5887 5886 5885 5885 5885 5884 5884 5884 5883 5883 5884 5884 5883 5883 5883 5883 5882 5882 5881
5929 5928 5926 5924 5922 5920 5918 5916 5914 5911 5909 5907 5904 5902 5900 5898 5896 5894 5893 5891 5889 5888 5886 5885 5884 5883 5882 5882 5881 5880 5880 5879 5879 5879 5879 5879 5879 5878 5878 5878 5877 5876 5876
5927 5926 5924 5923 5921 5919 5917 5915 5913 5910 5908 5906 5904 5901 5899 5897 5895 5893 5891 5889 5888 5886 5884 5883 5882 5880 5879 5878 5878 5877 5876 5876 5875 5875 5875 5874 5874 5873 5873 5872 5872 5871 5871
5924 5923 5922 5921 5919 5917 5915 5913 5911 5909 5907 5905 5903 5901 5898 5896 5894 5892 5890 5888 5886 5884 5882 5881 5879 5878 5876 5875 5874 5873 5873 5872 5871 5871 5870 5869 5869 5868 5867 5867 5866 5865 5865
5921 5920 5919 5918 5917 5915 5913 5912 5910 5908 5906 5904 5901 5899 5897 5895 5893 5891 5888 5886 5884 5882 5880 5878 5876 5875 5873 5872 5871 5870 5869 5868 5867 5866 5865 5864 5863 5863 5862 5861 5860 5859 5858
5918 5917 5916 5915 5914 5913 5911 5909 5908 5906 5904 5902 5900 5898 5896 5894 5891 5889 5887 5884 5882 5879 5877 5875 5873 5871 5870 5868 5866 5865 5864 5863 5862 5861 5860 5859 5858 5857 5856 5855 5854 5853 5852
5913 5913 5912 5912 5911 5909 5908 5907 5905 5903 5902 5900 5898 5896 5893 5891 5889 5886 5884 5882 5879 5877 5874 5872 5870 5868 5866 5864 5862 5861 5859 5858 5857 5856 5855 5854 5853 5851 5850 5849 5848 5847 5845
5909 5908 5908 5907 5907 5906 5905 5903 5902 5900 5899 5897 5895 5893 5891 5888 5886 5884 5881 5878 5876 5873 5871 5869 5866 5864 5862 5860 5858 5856 5855 5853 5852 5850 5849 5848 5847 5845 5844 5843 5841 5840 5838
5903 5903 5903 5903 5902 5901 5900 5899 5898 5896 5895 5893 5891 5889 5887 5885 5882 5880 5877 5875 5872 5869 5867 5864 5862 5860 5857 5855 5854 5851 5849 5847 5846 5844 5843 5841 5840 5838 5837 5836 5834 5832 5831
5898 5897 5897 5897 5897 5896 5895 5894 5893 5892 5890 5889 5887 5885 5882 5880 5877 5875 5872 5870 5867 5864 5862 5859 5857 5855 5852 5850 5848 5846 5844 5842 5840 5838 5837 5835 5833 5832 5830 5828 5827 5825 5823
5891 5891 5891 5891 5891 5890 5890 5889 5888 5886 5885 5883 5881 5879 5877 5874 5872 5870 5867 5864 5862 5859 5857 5854 5851 5849 5846 5844 5842 5840 5838 5836 5834 5832 5830 5828 5827 5825 5823 5821 5819 5817 5816
5884 5884 5884 5884 5884 5884 5883 5883 5881 5880 5879 5877 5875 5873 5870 5868 5866 5864 5861 5858 5855 5853 5850 5848 5845 5843 5840 5838 5836 5833 5831 5829 5827 5825 5823 5821 5819 5817 5815 5813 5812 5810 5808
5876 5876 5877 5877 5877 5877 5876 5875 5874 5873 5872 5870 5868 5866 5863 5861 5859 5856 5854 5851 5849 5846 5843 5841 5838 5835 5833 5831 5829 5827 5825 5823 5820 5818 5816 5814 5812 5809 5807 5806 5804 5802 5800
5867 5868 5868 5869 5869 5869 5868 5867 5866 5864 5863 5862 5860 5858 5856 5853 5850 5848 5846 5843 5841 5838 5835 5833 5830 5828 5826 5823 5821 5819 5817 5815 5813 5811 5809 5807 5804 5802 5800 5798 5795 5793 5791
5858 5859 5859 5860 5860 5860 5859 5858 5857 5856 5855 5853 5852 5849 5847 5845 5842 5839 5837 5835 5832 5830 5827 5824 5822 5820 5818 5816 5814 5811 5809 5807 5805 5803 5800 5798 5796 5793 5791 5789 5786 5784 5781
5848 5849 5850 5850 5850 5850 5850 5849 5848 5847 5846 5844 5842 5840 5838 5836 5833 5831 5828 5826 5824 5821 5818 5815 5813 5811 5808 5807 5805 5803 5801 5798 5796 5794 5791 5789 5786 5784 5781 5779 5776 5774 5771
5838 5839 5839 5839 5839 5839 5839 5839 5838 5837 5836 5834 5832 5830 5828 5826 5824 5821 5819 5816 5814 5812 5809 5807 5804 5802 5799 5797 5795 5793 5791 5789 5787 5784 5782 5779 5777 5774 5771 5769 5766 5763 5761
5827 5827 5828 5828 5828 5828 5828 5827 5827 5826 5825 5824 5822 5820 5817 5815 5813 5811 5809 5806 5805 5802 5800 5797 5795 5793 5790 5788 5785 5783 5781 5778 5776 5774 5771 5769 5766 5763 5761 5758 5755 5753 5750